This is the latest recevied weather packets stored in our database for station/object WB4FAY-4. If no packets are shown the sender has not sent any weather packets the latest 10 day(s).
| Time | Temp. | Humidity | Pressure | Rain* | Wind** | Luminosity | Snow |
|---|---|---|---|---|---|---|---|
| 1777714518 | 13.89° C | 71% | 1014.8 hPa | 0 mm | - | - | - |
| 1777714218 | 13.89° C | 71% | 1014.6 hPa | 0 mm | - | - | - |
| 1777713917 | 13.89° C | 71% | 1014.6 hPa | 0 mm | - | - | - |
| 1777713618 | 13.89° C | 71% | 1014.4 hPa | 0 mm | - | - | - |
| 1777713317 | 13.89° C | 73% | 1014.4 hPa | 0 mm | - | - | - |
| 1777713017 | 13.89° C | 73% | 1014.4 hPa | 0 mm | - | - | - |
| 1777712717 | 13.89° C | 73% | 1014.8 hPa | 0 mm | - | - | - |
| 1777712417 | 13.89° C | 75% | 1014.6 hPa | 0 mm | - | - | - |
| 1777712118 | 13.89° C | 72% | 1014.5 hPa | 0 mm | - | - | - |
| 1777711817 | 13.89° C | 72% | 1014.4 hPa | 0 mm | - | - | - |
| 1777711518 | 13.89° C | 73% | 1014.4 hPa | 0 mm | - | - | - |
| 1777711217 | 13.89° C | 73% | 1014.4 hPa | 0 mm | - | - | - |
| 1777710918 | 14.44° C | 74% | 1014.6 hPa | 0 mm | - | - | - |
| 1777710617 | 14.44° C | 74% | 1014.4 hPa | 0 mm | - | - | - |
| 1777710318 | 14.44° C | 74% | 1014.4 hPa | 0 mm | - | - | - |
| 1777710018 | 14.44° C | 74% | 1014.7 hPa | 0 mm | - | - | - |
| 1777709717 | 14.44° C | 75% | 1014.7 hPa | 0 mm | - | - | - |
| 1777709417 | 14.44° C | 75% | 1014.5 hPa | 0 mm | - | - | - |
| 1777709117 | 14.44° C | 74% | 1014.6 hPa | 0 mm | - | - | - |
| 1777708818 | 14.44° C | 77% | 1014.4 hPa | 0 mm | - | - | - |
| 1777708518 | 14.44° C | 79% | 1014.4 hPa | 0 mm | - | - | - |
| 1777708217 | 14.44° C | 80% | 1014.4 hPa | 0 mm | - | - | - |
| 1777707918 | 14.44° C | 81% | 1014.4 hPa | 0 mm | - | - | - |
| 1777707618 | 14.44° C | 81% | 1014.6 hPa | 0 mm | - | - | - |
| 1777707317 | 14.44° C | 82% | 1014.6 hPa | 0 mm | - | - | - |
* Rain latest 24 hours (hover to see other rain measurements)
** Current wind speed in m/s (hover to see current wind gust speed)